Home   Weather   Garbsen   Past weeks

Flag for Germany Past Weather in Garbsen, Lower Saxony, Germany — Yesterday and Last 2 Weeks

50 °F


Feels Like: 47 °F
Forecast: 51 / 57 °F
Wind: 7 mph from West

Location: Hannover

Current Time: Oct 27, 2016 at 5:16:23 AM

Latest Report: Oct 27, 2016 at 4:20 AM

Visibility: 3 mi

Pressure: 30.36 "Hg

Humidity: 82%

Dew Point: 45 °F

Location of GarbsenLocation

Past Weather in Garbsen — Graph


Garbsen Temperature Yesterday

Maximum temperature yesterday: 50 °F (at 1:50 PM)
Minimum temperature yesterday: 32 °F (at 4:50 AM)
Average temperature yesterday: 42 °F

High & Low Weather Summary for the Past Weeks

High63 °F (Oct 16, 1:20 PM)100% (Oct 16, 12:20 AM)30.39 "Hg (Oct 16, 12:20 AM)
Low32 °F (Oct 23, 7:50 AM)50% (Oct 23, 2:20 PM)29.74 "Hg (Oct 15, 5:20 AM)
Average47 °F89%30.05 "Hg
* Reported Oct 12 3:20 AM — Oct 27 3:50 AM, Garbsen, Weather by CustomWeather, © 2016

Note: Actual official high and low records may vary slightly from our data, if they occured in-between our weather recording intervals... More about our weather records


Garbsen Weather History for the Previous 24 Hours

Scroll right to see more
Time TempWeatherWind HumidityBarometerVisibility
3:50 AM
Thu, Oct 27
48 °FFog.6 mph87%30.36 "Hg3 mi
3:20 AM48 °FFog.5 mph87%30.36 "Hg3 mi
2:50 AM46 °FFog.3 mph93%30.39 "Hg3 mi
2:20 AM46 °FPassing clouds.5 mph87%30.39 "Hg4 mi
1:50 AM46 °FPassing clouds.3 mph87%30.39 "Hg4 mi
1:20 AM46 °FPassing clouds.5 mph87%30.36 "Hg5 mi
12:50 AM46 °FPassing clouds.6 mph82%30.36 "Hg5 mi
12:20 AM46 °FPartly cloudy.6 mph82%30.39 "Hg6 mi
11:50 PM
Wed, Oct 26
46 °FPartly cloudy.5 mph82%30.39 "Hg6 mi
11:20 PM45 °FClear.5 mph87%30.39 "Hg5 mi
10:50 PM46 °FClear.5 mph87%30.39 "Hg5 mi
10:20 PM46 °FPassing clouds.3 mph93%30.39 "Hg4 mi
9:50 PM46 °FPassing clouds.3 mph93%30.39 "Hg4 mi
9:20 PM46 °FPassing clouds.3 mph93%30.39 "Hg4 mi
8:50 PM45 °FPassing clouds.2 mph100%30.39 "Hg4 mi
8:20 PM45 °FPassing clouds.1 mph100%30.39 "Hg4 mi
7:50 PM46 °FPassing clouds.2 mph93%30.36 "Hg5 mi
7:20 PM46 °FPassing clouds.2 mph93%30.36 "Hg5 mi
6:50 PM46 °FPassing clouds.1 mph93%30.36 "Hg5 mi
6:20 PM48 °FPassing clouds.1 mph87%30.36 "Hg5 mi
5:50 PM48 °FPartly sunny.2 mph87%30.36 "Hg6 mi
5:20 PM48 °FPartly sunny.2 mph87%30.36 "HgN/A
4:50 PM50 °FPartly sunny.1 mph82%30.36 "HgN/A
4:20 PM50 °FPartly sunny.2 mph82%30.36 "HgN/A
3:50 PM50 °FPartly sunny.3 mph82%30.36 "HgN/A
3:20 PM50 °FPartly sunny.5 mph76%30.36 "HgN/A
2:50 PM50 °FPartly sunny.5 mph82%30.36 "HgN/A
2:20 PM50 °FPartly sunny.6 mph76%30.39 "HgN/A
1:50 PM50 °FPartly sunny.3 mph76%30.39 "HgN/A
1:20 PM48 °FPartly sunny.5 mph82%30.39 "HgN/A
12:50 PM48 °FPartly sunny.6 mph76%30.39 "HgN/A
12:20 PM48 °FPartly sunny.5 mph76%30.39 "HgN/A
11:50 AM46 °FPartly sunny.5 mph82%30.39 "HgN/A
11:20 AM46 °FPartly sunny.3 mph82%30.39 "HgN/A
10:50 AM45 °FPartly sunny.5 mph87%30.39 "Hg6 mi
10:20 AM43 °FPartly sunny.2 mph93%30.39 "Hg5 mi
9:50 AM41 °FBroken clouds.2 mph100%30.39 "Hg6 mi
9:20 AM39 °FPartly sunny.1 mph93%30.39 "HgN/A
8:50 AM37 °FPartly sunny.1 mph100%30.39 "Hg5 mi
8:20 AM37 °FPartly sunny.1 mph93%30.39 "Hg5 mi
7:50 AM36 °FPassing clouds.1 mph100%30.36 "HgN/A
7:20 AM36 °FPassing clouds.1 mph100%30.36 "Hg5 mi
6:50 AM36 °FPassing clouds.1 mph93%30.36 "Hg5 mi
6:20 AM34 °FFog.No wind100%30.36 "Hg3 mi
5:50 AM34 °FFog.1 mph100%30.36 "Hg2 mi
5:20 AM32 °FFog.2 mph100%30.36 "Hg0 mi
Weather by CustomWeather, © 2016

See weather overviewHow to use our weather pages